Time,TemperatureF,DewpointF,PressureIn,WindDirection,WindDirectionDegrees,WindSpeedMPH,WindSpeedGustMPH,Humidity,HourlyPrecipIn,Conditions,Clouds,dailyrainin,SolarRadiationWatts/m^2,SoftwareType,DateUTC
2013-03-20 00:00:00,33.2,19.6,29.99,WSW,241,14.0,17.0,57,0.00,,---,0.00,0.00,VWS V14.01,2013-03-20 04:00:00,
2013-03-20 00:05:00,33.3,19.7,29.99,SW,230,8.0,19.0,57,0.00,,---,0.00,0.00,VWS V14.01,2013-03-20 04:05:00,
2013-03-20 00:10:00,33.4,19.4,29.99,West,260,13.0,19.0,56,0.00,,---,0.00,0.00,VWS V14.01,2013-03-20 04:10:00,
2013-03-20 00:15:00,33.5,19.5,29.99,West,259,11.0,19.0,56,0.00,,---,0.00,0.00,VWS V14.01,2013-03-20 04:15:00,
2013-03-20 00:20:00,33.5,19.5,29.99,WSW,248,9.0,19.0,56,0.00,,---,0.00,0.00,VWS V14.01,2013-03-20 04:20:00,
2013-03-20 00:25:00,33.5,19.5,29.99,SW,236,10.0,21.0,56,0.00,,---,0.00,0.00,VWS V14.01,2013-03-20 04:25:00,
2013-03-20 00:30:00,33.5,19.9,29.99,West,262,9.0,9.0,57,0.00,,---,0.00,0.00,VWS V14.01,2013-03-20 04:30:00,
2013-03-20 00:35:00,33.2,19.6,29.99,WSW,251,11.0,14.0,57,0.00,,---,0.00,0.00,VWS V14.01,2013-03-20 04:35:00,
2013-03-20 00:40:00,33.2,19.6,29.99,WSW,257,13.0,15.0,57,0.00,,---,0.00,0.00,VWS V14.01,2013-03-20 04:40:00,
2013-03-20 00:46:00,33.1,19.5,29.99,West,263,10.0,16.0,57,0.00,,---,0.00,0.00,VWS V14.01,2013-03-20 04:46:00,
2013-03-20 00:50:00,33.1,19.5,29.99,West,266,10.0,16.0,57,0.00,,---,0.00,0.00,VWS V14.01,2013-03-20 04:50:00,
2013-03-20 00:56:00,33.2,19.6,29.99,WSW,241,10.0,16.0,57,0.00,,---,0.00,0.00,VWS V14.01,2013-03-20 04:56:00,
2013-03-20 01:00:00,33.1,19.5,29.98,WSW,255,7.0,17.0,57,0.00,,---,0.00,0.00,VWS V14.01,2013-03-20 05:00:00,
2013-03-20 01:01:00,33.1,19.5,29.98,WSW,242,9.0,9.0,57,0.00,,---,0.00,0.00,VWS V14.01,2013-03-20 05:01:00,
2013-03-20 01:06:00,32.9,19.8,29.99,SW,215,14.0,14.0,58,0.00,,---,0.00,0.00,VWS V14.01,2013-03-20 05:06:00,
2013-03-20 01:11:00,32.9,19.8,29.99,WSW,258,11.0,14.0,58,0.00,,---,0.00,0.00,VWS V14.01,2013-03-20 05:11:00,
2013-03-20 01:16:00,32.8,19.7,29.99,WSW,249,9.0,16.0,58,0.00,,---,0.00,0.00,VWS V14.01,2013-03-20 05:16:00,
2013-03-20 01:21:00,32.8,19.7,29.99,WSW,242,14.0,16.0,58,0.00,,---,0.00,0.00,VWS V14.01,2013-03-20 05:21:00,
2013-03-20 01:26:00,32.8,19.7,29.99,West,262,8.0,16.0,58,0.00,,---,0.00,0.00,VWS V14.01,2013-03-20 05:26:00,
2013-03-20 01:30:00,32.8,19.7,29.99,West,261,12.0,17.0,58,0.00,,---,0.00,0.00,VWS V14.01,2013-03-20 05:30:00,
2013-03-20 01:31:00,32.8,19.7,29.99,WSW,245,12.0,16.0,58,0.00,,---,0.00,0.00,VWS V14.01,2013-03-20 05:31:00,
2013-03-20 01:36:00,32.8,19.7,29.99,WSW,255,12.0,16.0,58,0.00,,---,0.00,0.00,VWS V14.01,2013-03-20 05:36:00,
2013-03-20 01:41:00,32.8,19.7,29.98,WSW,254,7.0,16.0,58,0.00,,---,0.00,0.00,VWS V14.01,2013-03-20 05:41:00,
2013-03-20 01:46:00,32.7,19.6,29.99,WSW,249,10.0,18.0,58,0.00,,---,0.00,0.00,VWS V14.01,2013-03-20 05:46:00,
2013-03-20 01:51:00,32.6,19.5,29.99,WSW,252,11.0,18.0,58,0.00,,---,0.00,0.00,VWS V14.01,2013-03-20 05:51:00,
2013-03-20 01:57:00,32.5,19.4,29.99,WSW,255,10.0,18.0,58,0.00,,---,0.00,0.00,VWS V14.01,2013-03-20 05:57:00,
2013-03-20 02:00:00,32.5,19.4,29.99,WSW,248,11.0,18.0,58,0.00,,---,0.00,0.00,VWS V14.01,2013-03-20 06:00:00,
2013-03-20 02:02:00,32.5,19.4,29.98,WSW,238,7.0,14.0,58,0.00,,---,0.00,0.00,VWS V14.01,2013-03-20 06:02:00,
2013-03-20 02:07:00,32.5,19.4,29.98,WSW,238,7.0,16.0,58,0.00,,---,0.00,0.00,VWS V14.01,2013-03-20 06:07:00,
2013-03-20 02:12:00,32.5,19.4,29.98,WSW,254,10.0,16.0,58,0.00,,---,0.00,0.00,VWS V14.01,2013-03-20 06:12:00,
2013-03-20 02:17:00,32.5,19.4,29.98,West,271,15.0,16.0,58,0.00,,---,0.00,0.00,VWS V14.01,2013-03-20 06:17:00,
2013-03-20 02:22:00,32.5,19.4,29.98,West,259,14.0,16.0,58,0.00,,---,0.00,0.00,VWS V14.01,2013-03-20 06:22:00,
2013-03-20 02:27:00,32.4,19.7,29.98,WSW,257,12.0,16.0,59,0.00,,---,0.00,0.00,VWS V14.01,2013-03-20 06:27:00,
2013-03-20 02:30:00,32.3,19.2,29.98,WSW,248,9.0,16.0,58,0.00,,---,0.00,0.00,VWS V14.01,2013-03-20 06:30:00,
2013-03-20 02:32:00,32.3,19.2,29.98,SW,236,5.0,10.0,58,0.00,,---,0.00,0.00,VWS V14.01,2013-03-20 06:32:00,
2013-03-20 02:37:00,32.2,19.5,29.98,West,271,7.0,15.0,59,0.00,,---,0.00,0.00,VWS V14.01,2013-03-20 06:37:00,
2013-03-20 02:42:00,32.1,19.4,29.98,West,259,7.0,15.0,59,0.00,,---,0.00,0.00,VWS V14.01,2013-03-20 06:42:00,
2013-03-20 02:48:00,32.0,19.3,29.98,WSW,252,9.0,15.0,59,0.00,,---,0.00,0.00,VWS V14.01,2013-03-20 06:48:00,
2013-03-20 02:54:00,31.9,19.2,29.98,West,263,11.0,15.0,59,0.00,,---,0.00,0.00,VWS V14.01,2013-03-20 06:54:00,
2013-03-20 02:58:00,31.9,19.2,29.97,WSW,252,8.0,15.0,59,0.00,,---,0.00,0.00,VWS V14.01,2013-03-20 06:58:00,
2013-03-20 03:00:00,31.9,19.2,29.97,WSW,246,6.0,15.0,59,0.00,,---,0.00,0.00,VWS V14.01,2013-03-20 07:00:00,
2013-03-20 03:03:00,31.8,19.5,29.97,WSW,245,5.0,11.0,60,0.00,,---,0.00,0.00,VWS V14.01,2013-03-20 07:03:00,
2013-03-20 03:08:00,31.6,19.3,29.97,WSW,250,6.0,11.0,60,0.00,,---,0.00,0.00,VWS V14.01,2013-03-20 07:08:00,
2013-03-20 03:13:00,31.4,19.1,29.97,WSW,250,5.0,15.0,60,0.00,,---,0.00,0.00,VWS V14.01,2013-03-20 07:13:00,
2013-03-20 03:18:00,31.2,19.3,29.97,SW,232,5.0,15.0,61,0.00,,---,0.00,0.00,VWS V14.01,2013-03-20 07:18:00,
2013-03-20 03:24:00,31.3,19.0,29.97,WSW,245,6.0,16.0,60,0.00,,---,0.00,0.00,VWS V14.01,2013-03-20 07:24:00,
2013-03-20 03:29:00,31.3,18.6,29.97,WSW,246,7.0,16.0,59,0.00,,---,0.00,0.00,VWS V14.01,2013-03-20 07:29:00,
2013-03-20 03:30:00,31.3,18.6,29.97,WSW,249,12.0,16.0,59,0.00,,---,0.00,0.00,VWS V14.01,2013-03-20 07:30:00,
2013-03-20 03:34:00,31.4,18.7,29.97,WSW,247,11.0,15.0,59,0.00,,---,0.00,0.00,VWS V14.01,2013-03-20 07:34:00,
2013-03-20 03:39:00,31.4,18.7,29.97,WSW,254,7.0,15.0,59,0.00,,---,0.00,0.00,VWS V14.01,2013-03-20 07:39:00,
2013-03-20 03:44:00,31.2,19.0,29.97,West,259,6.0,15.0,60,0.00,,---,0.00,0.00,VWS V14.01,2013-03-20 07:44:00,
2013-03-20 03:49:00,31.0,19.1,29.97,WSW,250,12.0,15.0,61,0.00,,---,0.00,0.00,VWS V14.01,2013-03-20 07:49:00,
2013-03-20 03:54:00,30.9,19.0,29.97,SW,236,10.0,15.0,61,0.00,,---,0.00,0.00,VWS V14.01,2013-03-20 07:54:00,
2013-03-20 03:59:00,30.8,19.0,29.97,WSW,254,5.0,15.0,61,0.00,,---,0.00,0.00,VWS V14.01,2013-03-20 07:59:00,
2013-03-20 04:00:00,30.7,19.2,29.97,WSW,251,13.0,15.0,62,0.00,,---,0.00,0.00,VWS V14.01,2013-03-20 08:00:00,
2013-03-20 04:04:00,30.6,18.8,29.96,SW,235,7.0,15.0,61,0.00,,---,0.00,0.00,VWS V14.01,2013-03-20 08:04:00,
2013-03-20 04:09:00,30.7,18.9,29.96,WSW,257,7.0,15.0,61,0.00,,---,0.00,0.00,VWS V14.01,2013-03-20 08:09:00,
2013-03-20 04:14:00,30.6,18.8,29.96,WSW,244,9.0,15.0,61,0.00,,---,0.00,0.00,VWS V14.01,2013-03-20 08:14:00,
2013-03-20 04:19:00,30.6,18.4,29.96,WSW,252,9.0,17.0,60,0.00,,---,0.00,0.00,VWS V14.01,2013-03-20 08:19:00,
2013-03-20 04:24:00,30.7,18.5,29.96,West,261,10.0,17.0,60,0.00,,---,0.00,0.00,VWS V14.01,2013-03-20 08:24:00,
2013-03-20 04:29:00,30.6,18.4,29.96,West,272,10.0,17.0,60,0.00,,---,0.00,0.00,VWS V14.01,2013-03-20 08:29:00,
2013-03-20 04:30:00,30.6,18.4,29.96,WSW,258,9.0,17.0,60,0.00,,---,0.00,0.00,VWS V14.01,2013-03-20 08:30:00,
2013-03-20 04:34:00,30.5,17.9,29.96,WSW,240,7.0,14.0,59,0.00,,---,0.00,0.00,VWS V14.01,2013-03-20 08:34:00,
2013-03-20 04:39:00,30.5,17.9,29.96,West,259,13.0,15.0,59,0.00,,---,0.00,0.00,VWS V14.01,2013-03-20 08:39:00,
2013-03-20 04:44:00,30.5,17.9,29.96,West,263,11.0,15.0,59,0.00,,---,0.00,0.00,VWS V14.01,2013-03-20 08:44:00,
2013-03-20 04:49:00,30.5,17.9,29.96,WSW,252,10.0,15.0,59,0.00,,---,0.00,0.00,VWS V14.01,2013-03-20 08:49:00,
2013-03-20 04:54:00,30.3,17.3,29.96,West,266,13.0,15.0,58,0.00,,---,0.00,0.00,VWS V14.01,2013-03-20 08:54:00,
2013-03-20 04:59:00,30.3,16.9,29.96,West,262,5.0,19.0,57,0.00,,---,0.00,0.00,VWS V14.01,2013-03-20 08:59:00,
2013-03-20 05:00:00,30.4,17.0,29.96,WSW,247,10.0,19.0,57,0.00,,---,0.00,0.00,VWS V14.01,2013-03-20 09:00:00,
2013-03-20 05:04:00,30.4,17.0,29.96,WSW,248,8.0,13.0,57,0.00,,---,0.00,0.00,VWS V14.01,2013-03-20 09:04:00,
2013-03-20 05:09:00,30.3,17.3,29.96,WSW,246,6.0,13.0,58,0.00,,---,0.00,0.00,VWS V14.01,2013-03-20 09:09:00,
2013-03-20 05:14:00,30.1,17.1,29.96,West,267,5.0,13.0,58,0.00,,---,0.00,0.00,VWS V14.01,2013-03-20 09:14:00,
2013-03-20 05:19:00,30.0,17.0,29.96,WSW,257,5.0,13.0,58,0.00,,---,0.00,0.00,VWS V14.01,2013-03-20 09:19:00,
2013-03-20 05:24:00,29.9,17.3,29.96,West,261,6.0,13.0,59,0.00,,---,0.00,0.00,VWS V14.01,2013-03-20 09:24:00,
2013-03-20 05:29:00,29.7,17.1,29.96,WSW,249,7.0,13.0,59,0.00,,---,0.00,0.00,VWS V14.01,2013-03-20 09:29:00,
2013-03-20 05:30:00,29.7,17.1,29.96,WSW,242,11.0,13.0,59,0.00,,---,0.00,0.00,VWS V14.01,2013-03-20 09:30:00,
2013-03-20 05:34:00,29.7,17.1,29.96,SW,236,5.0,12.0,59,0.00,,---,0.00,0.00,VWS V14.01,2013-03-20 09:34:00,
2013-03-20 05:39:00,29.6,17.0,29.96,WSW,249,4.0,12.0,59,0.00,,---,0.00,0.00,VWS V14.01,2013-03-20 09:39:00,
2013-03-20 05:44:00,29.5,17.3,29.96,WSW,248,6.0,12.0,60,0.00,,---,0.00,0.00,VWS V14.01,2013-03-20 09:44:00,
2013-03-20 05:49:00,29.4,17.2,29.96,WSW,255,3.0,12.0,60,0.00,,---,0.00,0.00,VWS V14.01,2013-03-20 09:49:00,
2013-03-20 05:54:00,29.2,17.4,29.96,SW,232,3.0,12.0,61,0.00,,---,0.00,0.00,VWS V14.01,2013-03-20 09:54:00,
2013-03-20 05:59:00,29.0,17.2,29.95,WSW,252,6.0,12.0,61,0.00,,---,0.00,0.00,VWS V14.01,2013-03-20 09:59:00,
2013-03-20 06:00:00,29.0,17.2,29.95,WSW,240,3.0,12.0,61,0.00,,---,0.00,0.00,VWS V14.01,2013-03-20 10:00:00,
2013-03-20 06:04:00,28.9,17.5,29.95,SW,235,3.0,6.0,62,0.00,,---,0.00,0.00,VWS V14.01,2013-03-20 10:04:00,
2013-03-20 06:10:00,28.7,17.7,29.95,SW,231,2.0,6.0,63,0.00,,---,0.00,0.00,VWS V14.01,2013-03-20 10:10:00,
2013-03-20 06:15:00,28.5,17.9,29.96,SW,229,4.0,6.0,64,0.00,,---,0.00,0.00,VWS V14.01,2013-03-20 10:15:00,
2013-03-20 06:20:00,28.3,17.7,29.96,SW,232,3.0,6.0,64,0.00,,---,0.00,0.00,VWS V14.01,2013-03-20 10:20:00,
2013-03-20 06:25:00,28.1,17.9,29.96,SW,225,4.0,7.0,65,0.00,,---,0.00,0.00,VWS V14.01,2013-03-20 10:25:00,
2013-03-20 06:30:00,28.0,17.8,29.95,SW,223,5.0,7.0,65,0.00,,---,0.00,0.00,VWS V14.01,2013-03-20 10:30:00,
2013-03-20 06:35:00,27.9,17.7,29.95,SW,235,3.0,6.0,65,0.00,,---,0.00,0.00,VWS V14.01,2013-03-20 10:35:00,
2013-03-20 06:40:00,27.8,17.9,29.95,SW,234,5.0,7.0,66,0.00,,---,0.00,0.00,VWS V14.01,2013-03-20 10:40:00,
2013-03-20 06:45:00,27.8,17.9,29.95,SW,225,3.0,7.0,66,0.00,,---,0.00,0.00,VWS V14.01,2013-03-20 10:45:00,
2013-03-20 06:50:00,27.7,17.8,29.95,SW,234,4.0,7.0,66,0.00,,---,0.00,0.00,VWS V14.01,2013-03-20 10:50:00,
2013-03-20 06:55:00,27.6,17.7,29.95,SW,228,4.0,7.0,66,0.00,,---,0.00,0.00,VWS V14.01,2013-03-20 10:55:00,
2013-03-20 07:00:00,27.6,17.7,29.95,SW,236,2.0,7.0,66,0.00,,---,0.00,0.00,VWS V14.01,2013-03-20 11:00:00,
2013-03-20 07:05:00,27.5,18.0,29.95,WSW,245,3.0,7.0,67,0.00,,---,0.00,0.00,VWS V14.01,2013-03-20 11:05:00,
2013-03-20 07:10:00,27.5,18.0,29.95,SW,229,3.0,7.0,67,0.00,,---,0.00,0.00,VWS V14.01,2013-03-20 11:10:00,
2013-03-20 07:15:00,27.4,18.2,29.95,SW,232,2.0,7.0,68,0.00,,---,0.00,0.00,VWS V14.01,2013-03-20 11:15:00,
2013-03-20 07:20:00,27.3,18.1,29.95,WSW,242,4.0,7.0,68,0.00,,---,0.00,0.00,VWS V14.01,2013-03-20 11:20:00,
2013-03-20 07:25:00,27.2,18.0,29.95,WSW,244,6.0,7.0,68,0.00,,---,0.00,0.00,VWS V14.01,2013-03-20 11:25:00,
2013-03-20 07:30:00,27.1,18.3,29.95,WSW,238,3.0,7.0,69,0.00,,---,0.00,0.00,VWS V14.01,2013-03-20 11:30:00,
2013-03-20 07:35:00,27.0,18.5,29.95,SW,227,4.0,6.0,70,0.00,,---,0.00,5.00,VWS V14.01,2013-03-20 11:35:00,
2013-03-20 07:40:00,26.9,18.4,29.95,SW,228,4.0,6.0,70,0.00,,---,0.00,9.00,VWS V14.01,2013-03-20 11:40:00,
2013-03-20 07:45:00,26.9,18.4,29.95,SW,228,3.0,6.0,70,0.00,,---,0.00,12.00,VWS V14.01,2013-03-20 11:45:00,
2013-03-20 07:50:00,26.9,18.4,29.95,SW,229,4.0,6.0,70,0.00,,---,0.00,16.00,VWS V14.01,2013-03-20 11:50:00,
2013-03-20 07:55:00,26.9,18.4,29.95,SW,229,3.0,6.0,70,0.00,,---,0.00,21.00,VWS V14.01,2013-03-20 11:55:00,
2013-03-20 08:00:00,27.0,18.9,29.95,SSW,202,6.0,7.0,71,0.00,,---,0.00,25.00,VWS V14.01,2013-03-20 12:00:00,
2013-03-20 08:05:00,27.1,19.0,29.94,SW,221,4.0,6.0,71,0.00,,---,0.00,30.00,VWS V14.01,2013-03-20 12:05:00,
2013-03-20 08:10:00,27.2,19.1,29.94,SW,223,3.0,6.0,71,0.00,,---,0.00,33.00,VWS V14.01,2013-03-20 12:10:00,
2013-03-20 08:15:00,27.3,19.1,29.94,SW,226,5.0,7.0,71,0.00,,---,0.00,42.00,VWS V14.01,2013-03-20 12:15:00,
2013-03-20 08:20:00,27.4,19.2,29.95,SW,226,2.0,7.0,71,0.00,,---,0.00,84.00,VWS V14.01,2013-03-20 12:20:00,
2013-03-20 08:25:00,27.6,19.8,29.94,SW,223,4.0,7.0,72,0.00,,---,0.00,95.00,VWS V14.01,2013-03-20 12:25:00,
2013-03-20 08:30:00,28.0,19.8,29.94,SW,221,4.0,7.0,71,0.00,,---,0.00,130.00,VWS V14.01,2013-03-20 12:30:00,
2013-03-20 08:35:00,28.3,20.1,29.94,WSW,238,5.0,10.0,71,0.00,,---,0.00,123.00,VWS V14.01,2013-03-20 12:35:00,
2013-03-20 08:40:00,28.7,20.5,29.94,SW,225,8.0,10.0,71,0.00,,---,0.00,114.00,VWS V14.01,2013-03-20 12:40:00,
2013-03-20 08:45:00,29.0,20.8,29.94,SW,218,5.0,12.0,71,0.00,,---,0.00,88.00,VWS V14.01,2013-03-20 12:45:00,
2013-03-20 08:50:00,29.2,20.6,29.94,WSW,238,5.0,12.0,70,0.00,,---,0.00,165.00,VWS V14.01,2013-03-20 12:50:00,
2013-03-20 08:55:00,29.4,20.8,29.94,WSW,246,5.0,12.0,70,0.00,,---,0.00,195.00,VWS V14.01,2013-03-20 12:55:00,
2013-03-20 09:00:00,29.6,21.0,29.94,WSW,241,5.0,14.0,70,0.00,,---,0.00,216.00,VWS V14.01,2013-03-20 13:00:00,
2013-03-20 09:05:00,29.9,21.3,29.95,WSW,248,5.0,12.0,70,0.00,,---,0.00,302.00,VWS V14.01,2013-03-20 13:05:00,
2013-03-20 09:10:00,30.3,22.0,29.95,WSW,240,6.0,12.0,71,0.00,,---,0.00,339.00,VWS V14.01,2013-03-20 13:10:00,
2013-03-20 09:15:00,30.6,22.0,29.95,WSW,240,10.0,12.0,70,0.00,,---,0.00,155.00,VWS V14.01,2013-03-20 13:15:00,
2013-03-20 09:20:00,30.6,21.6,29.95,SW,219,13.0,13.0,69,0.00,,---,0.00,171.00,VWS V14.01,2013-03-20 13:20:00,
2013-03-20 09:25:00,30.6,21.6,29.95,WSW,243,9.0,14.0,69,0.00,,---,0.00,188.00,VWS V14.01,2013-03-20 13:25:00,
2013-03-20 09:30:00,30.8,21.5,29.95,WSW,246,11.0,13.0,68,0.00,,---,0.00,255.00,VWS V14.01,2013-03-20 13:30:00,
2013-03-20 09:35:00,31.0,22.0,29.95,WSW,257,11.0,15.0,69,0.00,,---,0.00,192.00,VWS V14.01,2013-03-20 13:35:00,
2013-03-20 09:40:00,31.2,21.5,29.95,WSW,240,4.0,15.0,67,0.00,,---,0.00,192.00,VWS V14.01,2013-03-20 13:40:00,
2013-03-20 09:45:00,31.2,20.8,29.95,WSW,252,8.0,15.0,65,0.00,,---,0.00,192.00,VWS V14.01,2013-03-20 13:45:00,
2013-03-20 09:50:00,31.4,21.4,29.95,WSW,258,10.0,18.0,66,0.00,,---,0.00,185.00,VWS V14.01,2013-03-20 13:50:00,
2013-03-20 09:55:00,31.3,20.9,29.95,WSW,244,12.0,18.0,65,0.00,,---,0.00,257.00,VWS V14.01,2013-03-20 13:55:00,
2013-03-20 10:00:00,31.4,21.0,29.95,WSW,258,13.0,13.0,65,0.00,,---,0.00,492.00,VWS V14.01,2013-03-20 14:00:00,
2013-03-20 10:05:00,31.7,21.3,29.95,WSW,253,9.0,14.0,65,0.00,,---,0.00,519.00,VWS V14.01,2013-03-20 14:05:00,
2013-03-20 10:10:00,32.1,22.0,29.94,WSW,256,9.0,14.0,66,0.00,,---,0.00,301.00,VWS V14.01,2013-03-20 14:10:00,
2013-03-20 10:15:00,32.3,21.9,29.94,WSW,249,10.0,14.0,65,0.00,,---,0.00,163.00,VWS V14.01,2013-03-20 14:15:00,
2013-03-20 10:20:00,32.3,21.5,29.94,West,264,12.0,14.0,64,0.00,,---,0.00,200.00,VWS V14.01,2013-03-20 14:20:00,
2013-03-20 10:25:00,32.2,21.4,29.94,WSW,241,5.0,14.0,64,0.00,,---,0.00,563.00,VWS V14.01,2013-03-20 14:25:00,
2013-03-20 10:30:00,32.6,21.8,29.94,WSW,257,9.0,13.0,64,0.00,,---,0.00,490.00,VWS V14.01,2013-03-20 14:30:00,
2013-03-20 10:36:00,32.7,21.5,29.94,WSW,251,9.0,15.0,63,0.00,,---,0.00,287.00,VWS V14.01,2013-03-20 14:36:00,
2013-03-20 10:41:00,32.9,22.4,29.94,SW,216,10.0,15.0,65,0.00,,---,0.00,638.00,VWS V14.01,2013-03-20 14:41:00,
2013-03-20 10:46:00,33.0,21.8,29.94,SW,231,9.0,15.0,63,0.00,,---,0.00,308.00,VWS V14.01,2013-03-20 14:46:00,
2013-03-20 10:51:00,33.0,21.8,29.94,WSW,258,11.0,15.0,63,0.00,,---,0.00,343.00,VWS V14.01,2013-03-20 14:51:00,
2013-03-20 10:56:00,33.0,22.2,29.94,WSW,240,10.0,15.0,64,0.00,,---,0.00,413.00,VWS V14.01,2013-03-20 14:56:00,
2013-03-20 11:00:00,33.0,21.8,29.93,West,265,14.0,16.0,63,0.00,,---,0.00,385.00,VWS V14.01,2013-03-20 15:00:00,
2013-03-20 11:01:00,33.0,22.2,29.93,WSW,251,6.0,14.0,64,0.00,,---,0.00,385.00,VWS V14.01,2013-03-20 15:01:00,
2013-03-20 11:06:00,33.3,22.5,29.93,SW,231,10.0,17.0,64,0.00,,---,0.00,566.00,VWS V14.01,2013-03-20 15:06:00,
2013-03-20 11:11:00,33.6,22.7,29.93,WSW,250,7.0,17.0,64,0.00,,---,0.00,332.00,VWS V14.01,2013-03-20 15:11:00,
2013-03-20 11:16:00,33.9,22.6,29.92,SW,232,9.0,17.0,63,0.00,,---,0.00,687.00,VWS V14.01,2013-03-20 15:16:00,
2013-03-20 11:21:00,34.3,23.4,29.92,West,263,15.0,17.0,64,0.00,,---,0.00,744.00,VWS V14.01,2013-03-20 15:21:00,
2013-03-20 11:26:00,34.6,22.9,29.92,SW,223,12.0,17.0,62,0.00,,---,0.00,765.00,VWS V14.01,2013-03-20 15:26:00,
2013-03-20 11:30:00,34.6,22.2,29.92,WSW,252,13.0,18.0,60,0.00,,---,0.00,775.00,VWS V14.01,2013-03-20 15:30:00,
2013-03-20 11:32:00,34.4,21.6,29.92,WSW,254,18.0,18.0,59,0.00,,---,0.00,258.00,VWS V14.01,2013-03-20 15:32:00,
2013-03-20 11:37:00,34.2,22.5,29.92,WSW,242,12.0,18.0,62,0.00,,---,0.00,800.00,VWS V14.01,2013-03-20 15:37:00,
2013-03-20 11:42:00,34.7,23.0,29.91,SW,231,13.0,20.0,62,0.00,,---,0.00,367.00,VWS V14.01,2013-03-20 15:42:00,
2013-03-20 11:47:00,34.8,22.3,29.91,SW,227,11.0,20.0,60,0.00,,---,0.00,301.00,VWS V14.01,2013-03-20 15:47:00,
2013-03-20 11:52:00,34.9,22.4,29.91,WSW,238,10.0,20.0,60,0.00,,---,0.00,965.00,VWS V14.01,2013-03-20 15:52:00,
2013-03-20 11:57:00,34.8,22.0,29.91,West,269,10.0,20.0,59,0.00,,---,0.00,316.00,VWS V14.01,2013-03-20 15:57:00,
2013-03-20 12:00:00,34.9,22.8,29.91,SW,229,14.0,20.0,61,0.00,,---,0.00,283.00,VWS V14.01,2013-03-20 16:00:00,
2013-03-20 12:02:00,34.8,22.3,29.91,WSW,251,10.0,18.0,60,0.00,,---,0.00,332.00,VWS V14.01,2013-03-20 16:02:00,
2013-03-20 12:07:00,34.7,21.9,29.91,WSW,246,10.0,21.0,59,0.00,,---,0.00,649.00,VWS V14.01,2013-03-20 16:07:00,
2013-03-20 12:12:00,35.3,22.8,29.90,SW,223,11.0,21.0,60,0.00,,---,0.00,429.00,VWS V14.01,2013-03-20 16:12:00,
2013-03-20 12:17:00,35.2,21.5,29.90,West,271,18.0,21.0,57,0.00,,---,0.00,380.00,VWS V14.01,2013-03-20 16:17:00,
2013-03-20 12:23:00,35.0,22.1,29.90,WSW,245,13.0,24.0,59,0.00,,---,0.00,394.00,VWS V14.01,2013-03-20 16:23:00,
2013-03-20 12:28:00,35.5,23.0,29.90,WSW,238,11.0,24.0,60,0.00,,---,0.00,884.00,VWS V14.01,2013-03-20 16:28:00,
2013-03-20 12:30:00,35.8,22.9,29.90,WSW,248,17.0,24.0,59,0.00,,---,0.00,921.00,VWS V14.01,2013-03-20 16:30:00,
2013-03-20 12:33:00,36.0,22.3,29.90,WSW,244,9.0,20.0,57,0.00,,---,0.00,292.00,VWS V14.01,2013-03-20 16:33:00,
2013-03-20 12:38:00,35.6,21.5,29.90,West,263,14.0,23.0,56,0.00,,---,0.00,336.00,VWS V14.01,2013-03-20 16:38:00,
2013-03-20 12:43:00,35.1,20.6,29.89,WSW,247,18.0,23.0,55,0.00,,---,0.00,257.00,VWS V14.01,2013-03-20 16:43:00,
2013-03-20 12:48:00,34.8,21.1,29.89,West,274,13.0,23.0,57,0.00,,---,0.00,229.00,VWS V14.01,2013-03-20 16:48:00,
2013-03-20 12:53:00,34.7,21.5,29.89,West,262,7.0,23.0,58,0.00,,---,0.00,313.00,VWS V14.01,2013-03-20 16:53:00,
2013-03-20 12:58:00,34.9,22.0,29.89,WSW,254,10.0,23.0,59,0.00,,---,0.00,234.00,VWS V14.01,2013-03-20 16:58:00,
2013-03-20 13:00:00,34.9,21.6,29.89,West,261,15.0,23.0,58,0.00,,---,0.00,227.00,VWS V14.01,2013-03-20 17:00:00,
2013-03-20 13:03:00,34.9,21.6,29.89,West,267,12.0,17.0,58,0.00,,---,0.00,380.00,VWS V14.01,2013-03-20 17:03:00,
2013-03-20 13:08:00,35.4,20.9,29.89,WSW,254,21.0,21.0,55,0.00,,---,0.00,1037.00,VWS V14.01,2013-03-20 17:08:00,
2013-03-20 13:13:00,36.2,20.7,29.89,SW,232,17.0,24.0,53,0.00,,---,0.00,1039.00,VWS V14.01,2013-03-20 17:13:00,
2013-03-20 13:19:00,36.6,21.5,29.89,WSW,252,20.0,24.0,54,0.00,,---,0.00,257.00,VWS V14.01,2013-03-20 17:19:00,
2013-03-20 13:24:00,36.1,21.9,29.89,WSW,242,12.0,24.0,56,0.00,,---,0.00,1049.00,VWS V14.01,2013-03-20 17:24:00,
2013-03-20 13:29:00,36.9,22.3,29.88,WSW,247,18.0,26.0,55,0.00,,---,0.00,1046.00,VWS V14.01,2013-03-20 17:29:00,
2013-03-20 13:30:00,37.0,22.4,29.88,WSW,242,13.0,26.0,55,0.00,,---,0.00,1074.00,VWS V14.01,2013-03-20 17:30:00,
2013-03-20 13:34:00,37.2,21.7,29.88,WSW,250,15.0,24.0,53,0.00,,---,0.00,1041.00,VWS V14.01,2013-03-20 17:34:00,
2013-03-20 13:39:00,37.1,21.6,29.88,West,275,10.0,24.0,53,0.00,,---,0.00,1000.00,VWS V14.01,2013-03-20 17:39:00,
2013-03-20 13:44:00,36.9,21.8,29.88,WSW,254,9.0,24.0,54,0.00,,---,0.00,288.00,VWS V14.01,2013-03-20 17:44:00,
2013-03-20 13:49:00,36.4,20.5,29.88,WSW,251,11.0,24.0,52,0.00,,---,0.00,949.00,VWS V14.01,2013-03-20 17:49:00,
2013-03-20 13:54:00,36.8,21.7,29.87,WNW,284,19.0,24.0,54,0.00,,---,0.00,984.00,VWS V14.01,2013-03-20 17:54:00,
2013-03-20 13:59:00,36.9,19.5,29.87,WSW,238,15.0,24.0,49,0.00,,---,0.00,308.00,VWS V14.01,2013-03-20 17:59:00,
2013-03-20 14:00:00,36.8,19.5,29.87,West,264,10.0,24.0,49,0.00,,---,0.00,308.00,VWS V14.01,2013-03-20 18:00:00,
2013-03-20 14:04:00,36.5,20.6,29.87,West,277,11.0,19.0,52,0.00,,---,0.00,200.00,VWS V14.01,2013-03-20 18:04:00,
2013-03-20 14:09:00,35.9,19.5,29.87,West,261,16.0,19.0,51,0.00,,---,0.00,237.00,VWS V14.01,2013-03-20 18:09:00,
2013-03-20 14:14:00,35.3,20.3,29.87,West,267,12.0,19.0,54,0.00,,---,0.00,313.00,VWS V14.01,2013-03-20 18:14:00,
2013-03-20 14:19:00,35.3,19.9,29.87,West,265,9.0,19.0,53,0.00,,---,0.00,320.00,VWS V14.01,2013-03-20 18:19:00,
2013-03-20 14:24:00,35.3,19.0,29.87,WSW,249,14.0,24.0,51,0.00,,---,0.00,1058.00,VWS V14.01,2013-03-20 18:24:00,
2013-03-20 14:29:00,35.6,21.0,29.87,WNW,295,16.0,24.0,55,0.00,,---,0.00,236.00,VWS V14.01,2013-03-20 18:29:00,
2013-03-20 14:30:00,35.6,20.6,29.87,West,260,13.0,24.0,54,0.00,,---,0.00,315.00,VWS V14.01,2013-03-20 18:30:00,
2013-03-20 14:34:00,35.7,20.3,29.87,NW,321,11.0,19.0,53,0.00,,---,0.00,330.00,VWS V14.01,2013-03-20 18:34:00,
2013-03-20 14:39:00,35.5,19.6,29.87,WSW,246,19.0,24.0,52,0.00,,---,0.00,339.00,VWS V14.01,2013-03-20 18:39:00,
2013-03-20 14:44:00,35.5,20.5,29.87,West,259,10.0,24.0,54,0.00,,---,0.00,747.00,VWS V14.01,2013-03-20 18:44:00,
2013-03-20 14:49:00,35.8,20.4,29.87,West,263,14.0,24.0,53,0.00,,---,0.00,606.00,VWS V14.01,2013-03-20 18:49:00,
2013-03-20 14:54:00,35.7,20.3,29.86,West,270,11.0,24.0,53,0.00,,---,0.00,323.00,VWS V14.01,2013-03-20 18:54:00,
2013-03-20 14:59:00,35.4,20.0,29.87,NNW,327,9.0,24.0,53,0.00,,---,0.00,309.00,VWS V14.01,2013-03-20 18:59:00,
2013-03-20 15:00:00,35.3,19.9,29.87,West,281,12.0,24.0,53,0.00,,---,0.00,297.00,VWS V14.01,2013-03-20 19:00:00,
2013-03-20 15:04:00,35.0,19.6,29.87,West,263,14.0,22.0,53,0.00,,---,0.00,921.00,VWS V14.01,2013-03-20 19:04:00,
2013-03-20 15:09:00,34.9,19.1,29.87,West,271,7.0,22.0,52,0.00,,---,0.00,253.00,VWS V14.01,2013-03-20 19:09:00,
2013-03-20 15:14:00,35.3,21.2,29.87,WSW,255,13.0,22.0,56,0.00,,---,0.00,937.00,VWS V14.01,2013-03-20 19:14:00,
2013-03-20 15:19:00,35.6,20.6,29.86,WNW,283,13.0,22.0,54,0.00,,---,0.00,276.00,VWS V14.01,2013-03-20 19:19:00,
2013-03-20 15:24:00,35.3,20.3,29.86,West,278,12.0,25.0,54,0.00,,---,0.00,937.00,VWS V14.01,2013-03-20 19:24:00,
2013-03-20 15:29:00,35.7,21.6,29.86,NW,309,7.0,25.0,56,0.00,,---,0.00,237.00,VWS V14.01,2013-03-20 19:29:00,
2013-03-20 15:30:00,35.8,21.6,29.86,WNW,293,8.0,25.0,56,0.00,,---,0.00,229.00,VWS V14.01,2013-03-20 19:30:00,
2013-03-20 15:34:00,35.5,20.1,29.86,West,268,15.0,22.0,53,0.00,,---,0.00,299.00,VWS V14.01,2013-03-20 19:34:00,
2013-03-20 15:39:00,35.1,20.6,29.86,West,271,18.0,22.0,55,0.00,,---,0.00,243.00,VWS V14.01,2013-03-20 19:39:00,
2013-03-20 15:44:00,34.8,20.3,29.87,WNW,282,16.0,22.0,55,0.00,,---,0.00,320.00,VWS V14.01,2013-03-20 19:44:00,
2013-03-20 15:50:00,34.4,19.9,29.87,WNW,285,12.0,22.0,55,0.00,,---,0.00,285.00,VWS V14.01,2013-03-20 19:50:00,
2013-03-20 15:55:00,34.6,21.0,29.86,West,269,11.0,22.0,57,0.00,,---,0.00,236.00,VWS V14.01,2013-03-20 19:55:00,
2013-03-20 16:00:00,34.5,20.4,29.86,West,270,15.0,22.0,56,0.00,,---,0.00,809.00,VWS V14.01,2013-03-20 20:00:00,
2013-03-20 16:05:00,34.7,20.6,29.87,West,277,15.0,21.0,56,0.00,,---,0.00,297.00,VWS V14.01,2013-03-20 20:05:00,
2013-03-20 16:10:00,34.3,20.2,29.87,West,262,15.0,21.0,56,0.00,,---,0.00,262.00,VWS V14.01,2013-03-20 20:10:00,
2013-03-20 16:15:00,33.8,18.9,29.86,WNW,283,6.0,23.0,54,0.00,,---,0.00,267.00,VWS V14.01,2013-03-20 20:15:00,
2013-03-20 16:20:00,34.1,19.2,29.87,West,269,4.0,23.0,54,0.00,,---,0.00,258.00,VWS V14.01,2013-03-20 20:20:00,
2013-03-20 16:25:00,34.1,19.6,29.86,WNW,292,7.0,23.0,55,0.00,,---,0.00,359.00,VWS V14.01,2013-03-20 20:25:00,
2013-03-20 16:30:00,34.2,19.3,29.86,West,273,10.0,23.0,54,0.00,,---,0.00,661.00,VWS V14.01,2013-03-20 20:30:00,
2013-03-20 16:35:00,34.4,19.5,29.86,West,261,10.0,26.0,54,0.00,,---,0.00,527.00,VWS V14.01,2013-03-20 20:35:00,
2013-03-20 16:40:00,34.5,19.6,29.86,West,269,10.0,26.0,54,0.00,,---,0.00,545.00,VWS V14.01,2013-03-20 20:40:00,
2013-03-20 16:45:00,34.7,19.3,29.86,West,274,12.0,26.0,53,0.00,,---,0.00,251.00,VWS V14.01,2013-03-20 20:45:00,
2013-03-20 16:50:00,34.3,19.8,29.86,WSW,250,11.0,26.0,55,0.00,,---,0.00,206.00,VWS V14.01,2013-03-20 20:50:00,
2013-03-20 16:55:00,34.5,19.1,29.86,West,279,5.0,26.0,53,0.00,,---,0.00,243.00,VWS V14.01,2013-03-20 20:55:00,
2013-03-20 17:00:00,34.2,19.3,29.86,WNW,292,10.0,26.0,54,0.00,,---,0.00,292.00,VWS V14.01,2013-03-20 21:00:00,
2013-03-20 17:05:00,33.7,18.8,29.87,West,265,10.0,20.0,54,0.00,,---,0.00,190.00,VWS V14.01,2013-03-20 21:05:00,
2013-03-20 17:10:00,33.2,18.4,29.87,West,268,9.0,22.0,54,0.00,,---,0.00,218.00,VWS V14.01,2013-03-20 21:10:00,
2013-03-20 17:15:00,32.8,18.0,29.87,WSW,244,13.0,22.0,54,0.00,,---,0.00,265.00,VWS V14.01,2013-03-20 21:15:00,
2013-03-20 17:20:00,32.8,18.4,29.86,WSW,257,13.0,22.0,55,0.00,,---,0.00,336.00,VWS V14.01,2013-03-20 21:20:00,
2013-03-20 17:25:00,32.8,18.0,29.86,West,264,11.0,22.0,54,0.00,,---,0.00,139.00,VWS V14.01,2013-03-20 21:25:00,
2013-03-20 17:30:00,32.5,18.1,29.86,NW,307,7.0,22.0,55,0.00,,---,0.00,167.00,VWS V14.01,2013-03-20 21:30:00,
2013-03-20 17:35:00,32.4,18.0,29.86,WSW,249,9.0,16.0,55,0.00,,---,0.00,160.00,VWS V14.01,2013-03-20 21:35:00,
2013-03-20 17:40:00,32.3,18.4,29.86,WSW,257,13.0,16.0,56,0.00,,---,0.00,139.00,VWS V14.01,2013-03-20 21:40:00,
2013-03-20 17:45:00,32.1,18.2,29.86,West,275,11.0,16.0,56,0.00,,---,0.00,155.00,VWS V14.01,2013-03-20 21:45:00,
2013-03-20 17:50:00,32.1,17.3,29.86,WNW,284,4.0,21.0,54,0.00,,---,0.00,123.00,VWS V14.01,2013-03-20 21:50:00,
2013-03-20 17:55:00,32.0,18.1,29.87,NW,311,6.0,21.0,56,0.00,,---,0.00,116.00,VWS V14.01,2013-03-20 21:55:00,
2013-03-20 18:00:00,31.8,18.3,29.87,West,272,10.0,21.0,57,0.00,,---,0.00,127.00,VWS V14.01,2013-03-20 22:00:00,
2013-03-20 18:05:00,31.7,18.2,29.87,West,281,6.0,12.0,57,0.00,,---,0.00,88.00,VWS V14.01,2013-03-20 22:05:00,
2013-03-20 18:10:00,31.5,18.0,29.87,West,281,4.0,12.0,57,0.00,,---,0.00,88.00,VWS V14.01,2013-03-20 22:10:00,
2013-03-20 18:15:00,31.6,18.9,29.87,NW,318,5.0,13.0,59,0.00,,---,0.00,127.00,VWS V14.01,2013-03-20 22:15:00,
2013-03-20 18:20:00,31.6,19.3,29.87,WNW,290,17.0,17.0,60,0.00,,---,0.00,120.00,VWS V14.01,2013-03-20 22:20:00,
2013-03-20 18:25:00,31.4,18.4,29.87,WNW,295,9.0,18.0,58,0.00,,---,0.00,74.00,VWS V14.01,2013-03-20 22:25:00,
2013-03-20 18:30:00,31.1,17.7,29.87,WNW,301,3.0,4.0,57,0.00,,---,0.00,72.00,VWS V14.01,2013-03-20 22:30:00,
2013-03-20 18:35:00,30.9,17.9,29.88,West,267,9.0,16.0,58,0.00,,---,0.00,56.00,VWS V14.01,2013-03-20 22:35:00,
2013-03-20 18:40:00,30.9,18.7,29.88,West,273,13.0,23.0,60,0.00,,---,0.00,79.00,VWS V14.01,2013-03-20 22:40:00,
2013-03-20 18:45:00,30.5,18.3,29.88,WSW,250,14.0,23.0,60,0.00,,---,0.00,79.00,VWS V14.01,2013-03-20 22:45:00,
2013-03-20 18:50:00,30.3,18.5,29.88,West,273,4.0,23.0,61,0.00,,---,0.00,42.00,VWS V14.01,2013-03-20 22:50:00,
2013-03-20 18:55:00,30.3,18.1,29.88,West,273,7.0,23.0,60,0.00,,---,0.00,28.00,VWS V14.01,2013-03-20 22:55:00,
2013-03-20 19:00:00,30.3,18.1,29.88,West,263,14.0,23.0,60,0.00,,---,0.00,21.00,VWS V14.01,2013-03-20 23:00:00,
2013-03-20 19:05:00,30.2,18.4,29.89,NW,309,9.0,15.0,61,0.00,,---,0.00,21.00,VWS V14.01,2013-03-20 23:05:00,
2013-03-20 19:10:00,30.1,18.3,29.89,WNW,284,9.0,15.0,61,0.00,,---,0.00,21.00,VWS V14.01,2013-03-20 23:10:00,
2013-03-20 19:15:00,29.9,18.5,29.89,WNW,300,10.0,18.0,62,0.00,,---,0.00,25.00,VWS V14.01,2013-03-20 23:15:00,
2013-03-20 19:20:00,29.7,18.3,29.89,WNW,294,7.0,18.0,62,0.00,,---,0.00,16.00,VWS V14.01,2013-03-20 23:20:00,
2013-03-20 19:25:00,29.6,18.2,29.89,WNW,294,10.0,18.0,62,0.00,,---,0.00,12.00,VWS V14.01,2013-03-20 23:25:00,
2013-03-20 19:30:00,29.4,18.0,29.90,WNW,288,4.0,7.0,62,0.00,,---,0.00,7.00,VWS V14.01,2013-03-20 23:30:00,
2013-03-20 19:35:00,29.3,18.3,29.90,WSW,247,12.0,17.0,63,0.00,,---,0.00,9.00,VWS V14.01,2013-03-20 23:35:00,
2013-03-20 19:40:00,29.2,17.8,29.90,WNW,297,15.0,17.0,62,0.00,,---,0.00,5.00,VWS V14.01,2013-03-20 23:40:00,
2013-03-20 19:45:00,29.0,17.6,29.90,WNW,282,11.0,21.0,62,0.00,,---,0.00,0.00,VWS V14.01,2013-03-20 23:45:00,
2013-03-20 19:50:00,28.9,17.2,29.90,West,278,3.0,21.0,61,0.00,,---,0.00,0.00,VWS V14.01,2013-03-20 23:50:00,
2013-03-20 19:55:00,28.8,17.1,29.91,West,277,6.0,21.0,61,0.00,,---,0.00,0.00,VWS V14.01,2013-03-20 23:55:00,
2013-03-20 20:00:00,28.7,17.0,29.90,West,278,9.0,9.0,61,0.00,,---,0.00,0.00,VWS V14.01,2013-03-21 00:00:00,
2013-03-20 20:05:00,28.5,16.4,29.90,West,259,12.0,16.0,60,0.00,,---,0.00,0.00,VWS V14.01,2013-03-21 00:05:00,
2013-03-20 20:10:00,28.4,16.3,29.91,WNW,298,5.0,16.0,60,0.00,,---,0.00,0.00,VWS V14.01,2013-03-21 00:10:00,
2013-03-20 20:15:00,28.3,17.0,29.91,WNW,299,5.0,16.0,62,0.00,,---,0.00,0.00,VWS V14.01,2013-03-21 00:15:00,
2013-03-20 20:20:00,28.1,17.1,29.91,WNW,302,5.0,16.0,63,0.00,,---,0.00,0.00,VWS V14.01,2013-03-21 00:20:00,
2013-03-20 20:25:00,28.0,16.7,29.92,NW,304,9.0,20.0,62,0.00,,---,0.00,0.00,VWS V14.01,2013-03-21 00:25:00,
2013-03-20 20:30:00,27.8,16.1,29.92,WNW,287,7.0,7.0,61,0.00,,---,0.00,0.00,VWS V14.01,2013-03-21 00:30:00,
2013-03-20 20:35:00,27.7,16.4,29.92,West,278,7.0,16.0,62,0.00,,---,0.00,0.00,VWS V14.01,2013-03-21 00:35:00,
2013-03-20 20:40:00,27.4,15.4,29.92,WNW,293,10.0,16.0,60,0.00,,---,0.00,0.00,VWS V14.01,2013-03-21 00:40:00,
2013-03-20 20:46:00,27.1,15.1,29.92,WNW,284,14.0,16.0,60,0.00,,---,0.00,0.00,VWS V14.01,2013-03-21 00:46:00,
2013-03-20 20:51:00,27.0,15.0,29.92,WNW,296,4.0,16.0,60,0.00,,---,0.00,0.00,VWS V14.01,2013-03-21 00:51:00,
2013-03-20 20:56:00,26.7,14.7,29.92,West,278,10.0,16.0,60,0.00,,---,0.00,0.00,VWS V14.01,2013-03-21 00:56:00,
2013-03-20 21:00:00,26.6,14.6,29.92,West,263,10.0,16.0,60,0.00,,---,0.00,0.00,VWS V14.01,2013-03-21 01:00:00,
2013-03-20 21:01:00,26.6,15.0,29.92,West,277,6.0,7.0,61,0.00,,---,0.00,0.00,VWS V14.01,2013-03-21 01:01:00,
2013-03-20 21:06:00,26.4,14.8,29.92,NW,309,5.0,12.0,61,0.00,,---,0.00,0.00,VWS V14.01,2013-03-21 01:06:00,
2013-03-20 21:11:00,26.3,15.1,29.92,NW,309,5.0,13.0,62,0.00,,---,0.00,0.00,VWS V14.01,2013-03-21 01:11:00,
2013-03-20 21:16:00,26.1,14.9,29.92,West,277,9.0,13.0,62,0.00,,---,0.00,0.00,VWS V14.01,2013-03-21 01:16:00,
2013-03-20 21:21:00,26.0,15.1,29.93,West,271,10.0,13.0,63,0.00,,---,0.00,0.00,VWS V14.01,2013-03-21 01:21:00,
2013-03-20 21:26:00,25.9,15.1,29.93,WNW,294,4.0,13.0,63,0.00,,---,0.00,0.00,VWS V14.01,2013-03-21 01:26:00,
2013-03-20 21:30:00,25.8,15.7,29.93,NW,313,16.0,16.0,65,0.00,,---,0.00,0.00,VWS V14.01,2013-03-21 01:30:00,
2013-03-20 21:31:00,25.8,15.7,29.92,NW,306,12.0,16.0,65,0.00,,---,0.00,0.00,VWS V14.01,2013-03-21 01:31:00,
2013-03-20 21:36:00,25.6,15.8,29.93,West,263,13.0,16.0,66,0.00,,---,0.00,0.00,VWS V14.01,2013-03-21 01:36:00,
2013-03-20 21:41:00,25.4,16.0,29.93,West,278,11.0,16.0,67,0.00,,---,0.00,0.00,VWS V14.01,2013-03-21 01:41:00,
2013-03-20 21:46:00,25.3,15.9,29.93,NW,304,6.0,16.0,67,0.00,,---,0.00,0.00,VWS V14.01,2013-03-21 01:46:00,
2013-03-20 21:51:00,25.2,17.5,29.93,NW,319,12.0,17.0,72,0.00,,---,0.00,0.00,VWS V14.01,2013-03-21 01:51:00,
2013-03-20 21:57:00,25.1,15.4,29.93,West,267,9.0,17.0,66,0.00,,---,0.00,0.00,VWS V14.01,2013-03-21 01:57:00,
2013-03-20 22:00:00,24.9,14.8,29.93,West,281,6.0,17.0,65,0.00,,---,0.00,0.00,VWS V14.01,2013-03-21 02:00:00,
2013-03-20 22:02:00,24.9,14.8,29.92,West,275,6.0,12.0,65,0.00,,---,0.00,0.00,VWS V14.01,2013-03-21 02:02:00,
2013-03-20 22:07:00,24.8,14.7,29.92,West,273,10.0,14.0,65,0.00,,---,0.00,0.00,VWS V14.01,2013-03-21 02:07:00,
2013-03-20 22:12:00,24.7,14.3,29.92,West,277,3.0,14.0,64,0.00,,---,0.00,0.00,VWS V14.01,2013-03-21 02:12:00,
2013-03-20 22:17:00,24.7,14.6,29.92,West,267,9.0,14.0,65,0.00,,---,0.00,0.00,VWS V14.01,2013-03-21 02:17:00,
2013-03-20 22:22:00,24.5,14.4,29.92,West,281,4.0,14.0,65,0.00,,---,0.00,0.00,VWS V14.01,2013-03-21 02:22:00,
2013-03-20 22:27:00,24.4,14.3,29.93,WNW,284,4.0,14.0,65,0.00,,---,0.00,0.00,VWS V14.01,2013-03-21 02:27:00,
2013-03-20 22:30:00,24.3,14.6,29.93,West,272,4.0,14.0,66,0.00,,---,0.00,0.00,VWS V14.01,2013-03-21 02:30:00,
2013-03-20 22:32:00,24.3,14.6,29.93,WNW,285,5.0,10.0,66,0.00,,---,0.00,0.00,VWS V14.01,2013-03-21 02:32:00,
2013-03-20 22:37:00,24.2,14.1,29.93,WNW,294,5.0,12.0,65,0.00,,---,0.00,0.00,VWS V14.01,2013-03-21 02:37:00,
2013-03-20 22:42:00,24.1,13.7,29.92,West,277,4.0,12.0,64,0.00,,---,0.00,0.00,VWS V14.01,2013-03-21 02:42:00,
2013-03-20 22:47:00,24.1,13.7,29.93,West,278,5.0,13.0,64,0.00,,---,0.00,0.00,VWS V14.01,2013-03-21 02:47:00,
2013-03-20 22:52:00,24.0,13.6,29.93,WSW,257,6.0,13.0,64,0.00,,---,0.00,0.00,VWS V14.01,2013-03-21 02:52:00,
2013-03-20 22:57:00,23.9,13.1,29.92,West,274,4.0,13.0,63,0.00,,---,0.00,0.00,VWS V14.01,2013-03-21 02:57:00,
2013-03-20 23:00:00,23.8,13.1,29.93,WSW,258,6.0,13.0,63,0.00,,---,0.00,0.00,VWS V14.01,2013-03-21 03:00:00,
2013-03-20 23:02:00,23.8,13.1,29.92,West,271,7.0,10.0,63,0.00,,---,0.00,0.00,VWS V14.01,2013-03-21 03:02:00,
2013-03-20 23:07:00,23.8,13.4,29.92,West,278,10.0,11.0,64,0.00,,---,0.00,0.00,VWS V14.01,2013-03-21 03:07:00,
2013-03-20 23:12:00,23.7,13.3,29.92,West,277,4.0,11.0,64,0.00,,---,0.00,0.00,VWS V14.01,2013-03-21 03:12:00,
2013-03-20 23:17:00,23.6,13.6,29.92,West,268,2.0,11.0,65,0.00,,---,0.00,0.00,VWS V14.01,2013-03-21 03:17:00,
2013-03-20 23:22:00,23.5,13.5,29.92,West,275,4.0,11.0,65,0.00,,---,0.00,0.00,VWS V14.01,2013-03-21 03:22:00,
2013-03-20 23:27:00,23.4,13.4,29.92,WNW,288,4.0,11.0,65,0.00,,---,0.00,0.00,VWS V14.01,2013-03-21 03:27:00,
2013-03-20 23:30:00,23.3,13.6,29.92,West,279,4.0,11.0,66,0.00,,---,0.00,0.00,VWS V14.01,2013-03-21 03:30:00,
2013-03-20 23:32:00,23.3,13.6,29.92,West,279,3.0,8.0,66,0.00,,---,0.00,0.00,VWS V14.01,2013-03-21 03:32:00,
2013-03-20 23:37:00,23.2,13.5,29.92,West,276,5.0,11.0,66,0.00,,---,0.00,0.00,VWS V14.01,2013-03-21 03:37:00,
2013-03-20 23:42:00,23.2,13.5,29.92,West,272,5.0,12.0,66,0.00,,---,0.00,0.00,VWS V14.01,2013-03-21 03:42:00,
2013-03-20 23:47:00,23.2,13.5,29.92,West,267,5.0,12.0,66,0.00,,---,0.00,0.00,VWS V14.01,2013-03-21 03:47:00,
2013-03-20 23:52:00,23.1,13.4,29.92,West,273,6.0,13.0,66,0.00,,---,0.00,0.00,VWS V14.01,2013-03-21 03:52:00,
2013-03-20 23:57:00,23.1,13.1,29.92,West,265,7.0,13.0,65,0.00,,---,0.00,0.00,VWS V14.01,2013-03-21 03:57:00,